Location: La Estación
(39.9833°N, 3.9500°W)
Time: 15:12:06
(UTC+00:00)

Cosmos 921 Rocket - Pass Details

Date: 14 June 2025
Orbit: 564 x 622 km, 75.8° (Epoch: 20 July)

Event Time Altitude Azimuth Distance (km) Brightness Sun altitude
Exits shadow 21:54:01 - 218° (SW) 2,404 5.9 -18.6°
Reaches altitude 10° 21:55:23 10° 224° (SW) 1,892 5.4 -18.7°
Maximum altitude 21:59:16 36° 292° (WNW) 940 4.4 -19.1°
Drops below altitude 10° 22:03:16 10° 360° (N) 1,939 6.4 -19.5°
Sets 22:05:40 0° 9° (N) 2,856 7.3 -19.8°
